Regional Weather Roundup
Issued by NWS

Home | Current Version | Previous Version | Text Only | Print | Product List | Glossary Off
Versions: 1 2 3 4 5 6 7 8 9 10 11 12 13 14 15 16 17 18 19 20 21 22 23 24 25 26 27 28 29 30 31 32 33 34 35 36 37 38 39 40 41 42 43 44 45 46 47 48 49 50

275
ASUS44 KLIX 240901
RWRLA
LOUISIANA WEATHER ROUNDUP
NATIONAL WEATHER SERVICE NEW ORLEANS LA
300 AM CST MON NOV 24 2014

NOTE: "FAIR" INDICATES FEW OR NO CLOUDS BELOW 12,000 FEET WITH NO
      SIGNIFICANT WEATHER AND/OR OBSTRUCTIONS TO VISIBILITY.
      SKY/WX - SKY CONDITION AND SIGNIFICANT WEATHER.
      TMP - AIR TEMPERATURE.    DP   - DEWPOINT TEMPERATURE.
      RH  - RELATIVE HUMIDITY.  PRES - PRESSURE.
      HX  - HEAT INDEX.         WCI  - WIND CHILL INDEX.

*  THESE STATIONS ARE NOT NWS OR FAA STATIONS AND ARE NOT UNDER
   NWS QUALITY CONTROL.

LAZ040-048-061>063-065-066-069-241000-
SOUTHEAST LOUISIANA

CITY           SKY/WX    TMP DP  RH WIND       PRES   REMARKS
N.O. AUDUBON   NOT AVBL
N.O. INTL ARPT FOG       67  65  93 SW9       29.76R VSB 1
N.O. LAKEFRONT CLOUDY    68  66  93 SW15      29.76R FOG
N.O. DOWNTOWN* CLOUDY    68  64  88 S9        29.76S
SLIDELL        CLOUDY    68  66  93 SW5       29.75S FOG
BATON ROUGE    CLEAR     66  63  90 SW9       29.74R
BOOTHVILLE     FOG       67  67 100 S8        29.78S VSB 1/2
BELLE CHASSE   CLOUDY    68  66  93 SW9       29.76R
BOGALUSA*        N/A     70  64  81 SW9       29.75S
NEW ROADS*     NOT AVBL
GONZALES*      NOT AVBL
HAMMOND*       CLOUDY    68  64  88 SW6       29.76R
HOUMA*         MOCLDY    68  68  99 S5        29.76R FOG
PORT FOURCHON* SUNNY     70  68  94 SW8G14    29.81R FOG

$$

LAZ041-044-053-054-241000-
SOUTHWEST LOUISIANA

CITY           SKY/WX    TMP DP  RH WIND       PRES   REMARKS
LAKE CHARLES   CLEAR     62  54  74 NW8       29.77R
LAFAYETTE      PTCLDY    67  65  93 W10       29.76R
PATTERSON      CLOUDY    66  66 100 SW10      29.77R
SALT POINT       N/A    N/A N/A N/A VRB5      29.74R
NEW IBERIA     CLOUDY    66  65  96 W5        29.76R FOG
CHENAULT AIRPK CLEAR     62  55  80 NW9       29.77R

$$

LAZ027-028-241000-
CENTRAL LOUISIANA

CITY           SKY/WX    TMP DP  RH WIND       PRES   REMARKS
FORT POLK      CLEAR     57  49  77 NW15      29.77R
ALEXANDRIA INT CLEAR     58  55  90 W6        29.74R
ALEXANDRIA     CLEAR     58  55  90 W5        29.74R

$$

LAZ001-002-241000-
NORTHWEST LOUISIANA

CITY           SKY/WX    TMP DP  RH WIND       PRES   REMARKS
SHREVEPORT     CLOUDY    53  42  66 NW17      29.80R
BARKSDALE AFB  CLOUDY    53  41  64 NW18G29   29.80R
DTN SHREVEPORT CLOUDY    53  40  61 NW16G25   29.80R

$$

LAZ014-016-241000-
NORTHEAST LOUISIANA

CITY           SKY/WX    TMP DP  RH WIND       PRES   REMARKS
MONROE         CLEAR     57  48  72 W13       29.72R
TALLULAH       CLEAR     62  55  77 SW9       29.70R

$$




USA.gov is the U.S. government's official web portal to all federal, state and local government web resources and services.